This is the latest recevied weather packets stored in our database for station/object OK1KKY-18. If no packets are shown the sender has not sent any weather packets the latest 10 day(s).
| Time | Temp. | Humidity | Pressure | Rain* | Wind** | Luminosity | Snow |
|---|---|---|---|---|---|---|---|
| 1777773352 | 6.11° C | 68% | 1019.6 hPa | - | - | - | - |
| 1777772753 | 6.11° C | 68% | 1019.6 hPa | - | - | - | - |
| 1777772153 | 6.67° C | 66% | 1019.7 hPa | - | - | - | - |
| 1777771553 | 6.67° C | 66% | 1019.7 hPa | - | - | - | - |
| 1777770953 | 6.11° C | 68% | 1019.8 hPa | - | - | - | - |
| 1777770353 | 6.11° C | 66% | 1019.9 hPa | - | - | - | - |
| 1777769753 | 6.67° C | 66% | 1019.9 hPa | - | - | - | - |
| 1777769152 | 6.67° C | 66% | 1019.9 hPa | - | - | - | - |
| 1777768553 | 6.67° C | 65% | 1019.9 hPa | - | - | - | - |
| 1777767953 | 6.67° C | 64% | 1020 hPa | - | - | - | - |
| 1777767353 | 6.67° C | 65% | 1020.1 hPa | - | - | - | - |
| 1777766753 | 6.67° C | 64% | 1020.1 hPa | - | - | - | - |
| 1777766153 | 6.67° C | 63% | 1020.2 hPa | - | - | - | - |
| 1777765553 | 7.22° C | 62% | 1020.4 hPa | - | - | - | - |
| 1777764953 | 7.22° C | 62% | 1020.4 hPa | - | - | - | - |
| 1777764353 | 7.78° C | 61% | 1020.4 hPa | - | - | - | - |
| 1777763753 | 7.22° C | 61% | 1020.5 hPa | - | - | - | - |
| 1777763153 | 7.22° C | 61% | 1020.5 hPa | - | - | - | - |
| 1777762552 | 8.33° C | 59% | 1020.6 hPa | - | - | - | - |
| 1777761953 | 8.33° C | 56% | 1020.6 hPa | - | - | - | - |
| 1777761353 | 8.33° C | 56% | 1020.5 hPa | - | - | - | - |
| 1777760753 | 8.33° C | 56% | 1020.5 hPa | - | - | - | - |
| 1777760153 | 8.33° C | 55% | 1020.5 hPa | - | - | - | - |
| 1777759552 | 8.89° C | 56% | 1020.5 hPa | - | - | - | - |
| 1777758953 | 8.89° C | 54% | 1020.6 hPa | - | - | - | - |
* Rain since midnight (hover to see other rain measurements)
** Current wind speed in m/s (hover to see current wind gust speed)